Weather History for KDUJ - April, 2013

Change the Weather History Date:

Tuesday, April 2, 2013

  Actual Average Record
Temperature  
Mean Temperature 27 °F 41 °F  
Max Temperature 33 °F 52 °F 78 °F (1963)
Min Temperature 20 °F 31 °F 20 °F (1964)
Degree Days  
Heating Degree Days 38 24  
Month to date heating degree days 69 48  
Since 1 July heating degree days 5857 6006  
Cooling Degree Days 0 0  
Month to date cooling degree days 0 0  
Year to date cooling degree days 0 0  
Moisture  
Dew Point 12 °F    
Average Humidity 57    
Maximum Humidity 77    
Minimum Humidity 36    
Precipitation  
Precipitation T in 0.12 in 1.82 in (1977)
Month to date precipitation T 0.24  
Sea Level Pressure  
Sea Level Pressure 30.08 in    
Wind  
Wind Speed 12 mph (West)    
Max Wind Speed 25 mph    
Max Gust Speed 31 mph    
Visibility 10 miles    
Events      
T = Trace of Precipitation, MM = Missing Value Source: NWS Daily Summary

Daily Weather History Graph

Daily Weather History Graph

Search for Another Location

Airport or City:

Trip Planner

Search our weather history database for the weather conditions in past years. The results will help you decide how hot, cold, wet, or windy it might be!

Date:

Astronomy

Apr. 02, 2013 Rise Set
Actual Time 6:56 AM EDT 7:41 PM EDT
Civil Twilight 6:28 AM EDT 8:09 PM EDT
Nautical Twilight 5:55 AM EDT 8:42 PM EDT
Astronomical Twilight 5:21 AM EDT 9:17 PM EDT
Moon 1:47 AM EDT (4/2) 11:43 AM EDT (4/2)
Length of Visible Light 13h 40m
Length of Day
12h 45m
Waning Gibbous, 56% of the Moon is Illuminated
Apr 2
Waning Gibbous
Apr 3
Last Quarter
Apr 10
New
Apr 18
First Quarter
Apr 25
Full

Hourly Weather History & Observations

Time (EDT) Temp. Windchill Dew Point Humidity Pressure Visibility Wind Dir Wind Speed Gust Speed Precip Events Conditions
12:56 AM 25.0 °F 14.8 °F 12.9 °F 60% 29.98 in 10.0 mi WNW 10.4 mph - N/A   Clear
1:56 AM 24.1 °F 14.4 °F 14.0 °F 65% 29.99 in 10.0 mi West 9.2 mph - N/A   Mostly Cloudy
2:56 AM 23.0 °F 15.8 °F 15.1 °F 72% 29.99 in 10.0 mi WNW 5.8 mph - N/A   Scattered Clouds
3:56 AM 24.1 °F 11.5 °F 15.1 °F 69% 29.99 in 10.0 mi WNW 15.0 mph - N/A   Overcast
4:56 AM 23.0 °F 11.7 °F 12.9 °F 65% 30.01 in 10.0 mi NW 11.5 mph - N/A   Overcast
5:56 AM 21.9 °F 13.4 °F 12.9 °F 68% 30.02 in 10.0 mi West 6.9 mph - N/A   Mostly Cloudy
6:56 AM 21.0 °F 11.4 °F 12.9 °F 71% 30.04 in 10.0 mi West 8.1 mph - N/A   Scattered Clouds
7:56 AM 21.9 °F 11.7 °F 16.0 °F 78% 30.07 in 10.0 mi West 9.2 mph - N/A   Mostly Cloudy
8:56 AM 24.1 °F 11.0 °F 12.0 °F 60% 30.09 in 10.0 mi WNW 16.1 mph 24.2 mph N/A   Scattered Clouds
9:56 AM 27.0 °F 15.2 °F 10.0 °F 49% 30.09 in 10.0 mi West 15.0 mph 27.6 mph N/A   Mostly Cloudy
10:56 AM 27.0 °F 17.3 °F 10.9 °F 51% 30.10 in 10.0 mi West 10.4 mph 25.3 mph N/A   Overcast
11:56 AM 27.0 °F 14.3 °F 12.9 °F 56% 30.11 in 9.0 mi WNW 17.3 mph 24.2 mph 0.00 in   Overcast
12:56 PM 30.9 °F 19.1 °F 12.0 °F 46% 30.09 in 10.0 mi West 18.4 mph 27.6 mph N/A   Overcast
1:56 PM 30.9 °F 20.2 °F 16.0 °F 54% 30.09 in 10.0 mi West 15.0 mph 23.0 mph N/A   Mostly Cloudy
2:56 PM 33.1 °F 23.9 °F 17.1 °F 52% 30.08 in 10.0 mi West 12.7 mph 29.9 mph N/A   Mostly Cloudy
3:56 PM 30.0 °F 19.5 °F 14.0 °F 51% 30.08 in 10.0 mi West 13.8 mph 23.0 mph 0.00 in   Overcast
4:56 PM 32.0 °F 21.6 °F 12.9 °F 45% 30.08 in 10.0 mi West 15.0 mph 25.3 mph N/A   Mostly Cloudy
5:56 PM 32.0 °F 23.0 °F 8.1 °F 37% 30.10 in 10.0 mi West 11.5 mph 25.3 mph N/A   Mostly Cloudy
6:56 PM 30.9 °F 19.1 °F 7.0 °F 37% 30.12 in 10.0 mi WNW 18.4 mph 23.0 mph N/A   Partly Cloudy
7:56 PM 28.0 °F 18.6 °F 8.1 °F 43% 30.14 in 10.0 mi WNW 10.4 mph 21.9 mph N/A   Clear
8:56 PM 27.0 °F 17.3 °F 8.1 °F 45% 30.16 in 10.0 mi West 10.4 mph - N/A   Clear
9:56 PM 25.0 °F 18.1 °F 8.1 °F 49% 30.16 in 10.0 mi West 5.8 mph - N/A   Clear
10:56 PM 26.1 °F 20.5 °F 9.0 °F 49% 30.16 in 10.0 mi West 4.6 mph - N/A   Overcast
11:56 PM 25.0 °F 17.1 °F 10.0 °F 53% 30.16 in 10.0 mi WSW 6.9 mph - N/A   Overcast